This is the latest recevied weather packets stored in our database for station/object NK2J. If no packets are shown the sender has not sent any weather packets the latest 10 day(s).
| Time | Temp. | Humidity | Pressure | Rain* | Wind** | Luminosity | Snow |
|---|---|---|---|---|---|---|---|
| 1777856938 | 32.78° C | 16% | 1008.5 hPa | 0 mm | - | 33 W/m² | - |
| 1777856634 | 33.33° C | 16% | 1008.4 hPa | 0 mm | - | 35 W/m² | - |
| 1777856331 | 33.33° C | 17% | 1008.5 hPa | 0 mm | - | 37 W/m² | - |
| 1777856027 | 33.33° C | 16% | 1008.4 hPa | 0 mm | - | 38 W/m² | - |
| 1777855725 | 33.33° C | 16% | 1008.7 hPa | 0 mm | - | 44 W/m² | - |
| 1777855423 | 33.89° C | 16% | 1008.4 hPa | 0 mm | - | 68 W/m² | - |
| 1777855119 | 33.89° C | 15% | 1008.4 hPa | 0 mm | - | 89 W/m² | - |
| 1777854816 | 34.44° C | 15% | 1008.5 hPa | 0 mm | - | 166 W/m² | - |
| 1777854513 | 34.44° C | 15% | 1008.5 hPa | 0 mm | - | 182 W/m² | - |
| 1777854209 | 34.44° C | 15% | 1008.2 hPa | 0 mm | - | 194 W/m² | - |
| 1777853907 | 34.44° C | 15% | 1008.3 hPa | 0 mm | - | 208 W/m² | - |
| 1777853604 | 34.44° C | 15% | 1008.4 hPa | 0 mm | - | 223 W/m² | - |
| 1777853301 | 35° C | 15% | 1008.3 hPa | 0 mm | - | 240 W/m² | - |
| 1777852998 | 35° C | 15% | 1008.4 hPa | 0 mm | - | 259 W/m² | - |
| 1777852696 | 35° C | 16% | 1008.5 hPa | 0 mm | - | 273 W/m² | - |
| 1777852393 | 34.44° C | 17% | 1008.4 hPa | 0 mm | - | 286 W/m² | - |
| 1777852090 | 34.44° C | 19% | 1008.4 hPa | 0 mm | - | 309 W/m² | - |
| 1777851788 | 33.89° C | 17% | 1008.5 hPa | 0 mm | - | 332 W/m² | - |
| 1777851486 | 34.44° C | 18% | 1008.6 hPa | 0 mm | - | 353 W/m² | - |
| 1777851181 | 33.33° C | 18% | 1008.6 hPa | 0 mm | - | 109 W/m² | - |
| 1777850878 | 33.89° C | 19% | 1008.6 hPa | 0 mm | - | 401 W/m² | - |
| 1777850576 | 33.89° C | 18% | 1008.6 hPa | 0 mm | - | 177 W/m² | - |
| 1777850274 | 33.89° C | 18% | 1008.8 hPa | 0 mm | - | 93 W/m² | - |
| 1777849970 | 33.89° C | 19% | 1009 hPa | 0 mm | - | 417 W/m² | - |
| 1777849666 | 33.89° C | 18% | 1008.8 hPa | 0 mm | - | 90 W/m² | - |
* Rain latest hour (hover to see other rain measurements)
** Current wind speed in m/s (hover to see current wind gust speed)